User: anonymous   Login
Location: Caltech
(34.1382°N, 118.1253°W)
Time: 02:15:59
(UTC-07:00)
Language:

Cosmos 2333 Rocket - Orbit

View from above orbital plane
View from above orbital plane
View from above satellite
View from above satellite

Ground track
Ground track

The orbit data is extracted from the following two-line orbital elements,

1 24298U 96051B   16126.65631178  .00000045  00000-0  50936-4 0  9995
2 24298  70.8352 201.1123 0012531  69.4271 290.8192 14.12396458 14271
Epoch (UTC): 05 May 2016 15:45:05
Eccentricity: 0.0012531
inclination: 70.8352°
perigee height: 842 km
apogee height: 860 km
right ascension of ascending node: 201.1123°
argument of perigee: 69.4271°
revolutions per day: 14.12396458
mean anomaly at epoch: 290.8192°
orbit number at epoch: 1427

The dashed part of the orbit path shows where the satellite is in the earth's shadow,  

DLR